Forks, WA

7:37 PM PST on January 23, 2017 (GMT -0800)
Quillayute

Weather History for KUIL - November, 2013

Change the Weather History Date:

Tuesday, November 5, 2013

  Actual Average Record
Temperature  
Mean Temperature 47 °F 46 °F  
Max Temperature 54 °F 53 °F 64 °F (1987)
Min Temperature 40 °F 40 °F 23 °F (1973)
Degree Days  
Heating Degree Days 18 19  
Month to date heating degree days 84 93  
Since 1 July heating degree days 763 1183  
Cooling Degree Days 0 0  
Month to date cooling degree days 0 0  
Year to date cooling degree days 39 19  
Moisture  
Dew Point 44 °F    
Average Humidity 82    
Maximum Humidity 93    
Minimum Humidity 71    
Precipitation  
Precipitation 0.14 in 0.50 in 2.59 in (1988)
Month to date precipitation 1.50 2.40  
Year to date precipitation 76.06 73.43  
Sea Level Pressure  
Sea Level Pressure 30.10 in    
Wind  
Wind Speed 4 mph (SSW)    
Max Wind Speed 10 mph    
Max Gust Speed 13 mph    
Visibility 3 miles    
Events Fog , Rain    
T = Trace of Precipitation, MM = Missing Value Source: NWS Daily Summary

Daily Weather History Graph

Daily Weather History Graph

Search for Another Location

Airport or City:

Trip Planner

Search our weather history database for the weather conditions in past years. The results will help you decide how hot, cold, wet, or windy it might be!

Date:

Astronomy

Nov. 05, 2013 Rise Set
Actual Time 7:09 AM PST 4:53 PM PST
Civil Twilight 6:36 AM PST 5:26 PM PST
Nautical Twilight 5:59 AM PST 6:03 PM PST
Astronomical Twilight 5:23 AM PST 6:39 PM PST
Moon 9:37 AM PST (11/5) 6:53 PM PST (11/5)
Length of Visible Light 10h 49m
Length of Day
9h 43m
Waxing Crescent, 7% of the Moon is Illuminated
Nov 5
Waxing Crescent
Nov 9
First Quarter
Nov 17
Full
Nov 25
Last Quarter
Dec 2
New

Hourly Weather History & Observations

Time (PST) Temp. Windchill Dew Point Humidity Pressure Visibility Wind Dir Wind Speed Gust Speed Precip Events Conditions
12:01 AM 48.2 °F - 44.6 °F 87% 29.98 in 1.8 mi NE 5.8 mph - 0.01 in Rain Light Rain
12:31 AM 48.2 °F - 44.6 °F 87% 29.98 in 1.2 mi ENE 4.6 mph - 0.04 in Rain Light Rain
12:53 AM 48.9 °F - 46.0 °F 90% 29.98 in 1.2 mi ENE 5.8 mph - 0.07 in Rain Light Rain
1:11 AM 48.2 °F - 44.6 °F 87% 29.98 in 1.5 mi ENE 4.6 mph - 0.02 in   Overcast
1:25 AM 48.2 °F - 46.4 °F 93% 29.97 in 2.0 mi East 4.6 mph - 0.02 in   Overcast
1:53 AM 48.9 °F - 46.0 °F 90% 29.98 in 3.0 mi Calm Calm - 0.03 in   Overcast
2:13 AM 50.0 °F - 46.4 °F 87% 29.98 in 2.0 mi East 3.5 mph - 0.00 in Rain Light Rain
2:27 AM 50.0 °F - 46.4 °F 87% 29.98 in 3.0 mi Calm Calm - 0.00 in Rain Light Rain
2:33 AM 50.0 °F - 46.4 °F 87% 29.98 in 1.8 mi East 3.5 mph - 0.01 in Rain Light Rain
2:45 AM 50.0 °F - 46.4 °F 87% 29.98 in 2.5 mi East 3.5 mph - 0.01 in Rain Light Rain
2:53 AM 50.0 °F - 46.0 °F 86% 29.99 in 2.0 mi Calm Calm - 0.01 in Rain Light Rain
2:59 AM 50.0 °F - 46.4 °F 87% 29.99 in 2.0 mi Calm Calm - 0.00 in Rain Light Rain
3:26 AM 50.0 °F - 46.4 °F 87% 29.98 in 1.5 mi Calm Calm - 0.02 in Rain Light Rain
3:53 AM 48.9 °F - 46.0 °F 90% 29.98 in 1.8 mi East 4.6 mph - 0.03 in   Overcast
4:23 AM 48.2 °F - 44.6 °F 87% 29.98 in 2.5 mi Calm Calm - N/A   Overcast
4:48 AM 48.2 °F - 44.6 °F 87% 29.98 in 4.0 mi East 3.5 mph - 0.00 in   Overcast
4:53 AM 48.0 °F - 45.0 °F 89% 29.99 in 4.0 mi East 3.5 mph - 0.00 in   Overcast
5:53 AM 51.1 °F - 48.0 °F 89% 29.99 in 5.0 mi SSW 5.8 mph - 0.01 in Rain Light Rain
6:21 AM 51.8 °F - 48.2 °F 88% 30.00 in 7.0 mi SSW 5.8 mph - 0.00 in   Overcast
6:43 AM 51.8 °F - 48.2 °F 88% 30.00 in 7.0 mi SW 5.8 mph - 0.00 in   Overcast
6:53 AM 52.0 °F - 48.0 °F 86% 30.01 in 6.0 mi SSW 6.9 mph - 0.00 in   Overcast
7:05 AM 51.8 °F - 48.2 °F 88% 30.01 in 6.0 mi SW 9.2 mph - N/A   Overcast
7:48 AM 51.8 °F - 48.2 °F 88% 30.02 in 5.0 mi SW 4.6 mph - N/A   Overcast
7:53 AM 52.0 °F - 48.0 °F 86% 30.03 in 4.0 mi SW 4.6 mph - N/A   Overcast
8:12 AM 51.8 °F - 48.2 °F 88% 30.03 in 5.0 mi SW 5.8 mph - N/A   Overcast
8:53 AM 52.0 °F - 46.9 °F 83% 30.05 in 6.0 mi West 8.1 mph - N/A   Haze
9:34 AM 51.8 °F - 48.2 °F 88% 30.06 in 6.0 mi WSW 6.9 mph - N/A   Overcast
9:53 AM 52.0 °F - 48.0 °F 86% 30.06 in 6.0 mi WSW 8.1 mph - N/A   Overcast
10:14 AM 53.6 °F - 48.2 °F 82% 30.06 in 5.0 mi SW 5.8 mph - N/A   Overcast
10:24 AM 51.8 °F - 48.2 °F 88% 30.07 in 5.0 mi SW 8.1 mph - N/A   Overcast
10:31 AM 51.8 °F - 48.2 °F 88% 30.07 in 5.0 mi SW 6.9 mph - N/A   Overcast
10:40 AM 51.8 °F - 48.2 °F 88% 30.07 in 6.0 mi WSW 9.2 mph - N/A   Overcast
10:53 AM 52.0 °F - 48.0 °F 86% 30.08 in 5.0 mi SW 9.2 mph - N/A   Overcast
11:22 AM 51.8 °F - 46.4 °F 82% 30.09 in 6.0 mi West 6.9 mph - N/A   Haze
11:53 AM 53.1 °F - 46.0 °F 77% 30.09 in 7.0 mi West 5.8 mph - N/A   Overcast
12:26 PM 51.8 °F - 44.6 °F 76% 30.10 in 7.0 mi WSW 6.9 mph - N/A   Overcast
12:53 PM 52.0 °F - 45.0 °F 77% 30.10 in 7.0 mi West 5.8 mph - N/A   Overcast
1:35 PM 53.6 °F - 44.6 °F 72% 30.10 in 7.0 mi Variable 3.5 mph - N/A   Overcast
1:53 PM 54.0 °F - 46.0 °F 75% 30.11 in 6.0 mi West 4.6 mph - N/A   Haze
2:53 PM 53.1 °F - 45.0 °F 74% 30.12 in 5.0 mi West 3.5 mph - N/A   Haze
3:30 PM 53.6 °F - 46.4 °F 77% 30.13 in 6.0 mi West 3.5 mph - N/A   Haze
3:53 PM 52.0 °F - 46.0 °F 80% 30.14 in 5.0 mi WSW 3.5 mph - N/A   Haze
4:53 PM 51.1 °F - 46.0 °F 83% 30.15 in 5.0 mi Calm Calm - N/A   Haze
5:53 PM 48.9 °F - 44.1 °F 83% 30.17 in 5.0 mi Calm Calm - N/A   Haze
6:53 PM 48.0 °F - 44.1 °F 86% 30.19 in 4.0 mi Calm Calm - N/A   Overcast
7:39 PM 46.4 °F - 42.8 °F 87% 30.19 in 1.0 mi Calm Calm - N/A   Mostly Cloudy
7:45 PM 46.4 °F - 42.8 °F 87% 30.19 in 0.2 mi Calm Calm - N/A Fog Fog
7:53 PM 45.0 °F - 42.1 °F 90% 30.19 in 0.5 mi Calm Calm - N/A Fog Fog
7:57 PM 44.6 °F - 41.0 °F 87% 30.19 in 0.2 mi Calm Calm - N/A Fog Fog
8:20 PM 44.6 °F - 42.8 °F 93% 30.20 in 0.5 mi Calm Calm - N/A Fog Fog
8:36 PM 42.8 °F - 39.2 °F 87% 30.20 in 0.2 mi Calm Calm - N/A Fog Fog
8:53 PM 43.0 °F - 39.0 °F 86% 30.21 in 0.2 mi Calm Calm - N/A Fog Fog
9:04 PM 42.8 °F 41.1 °F 39.2 °F 87% 30.21 in 0.8 mi East 3.5 mph - N/A   Mist
9:13 PM 42.8 °F - 39.2 °F 87% 30.21 in 0.5 mi Calm Calm - N/A Fog Fog
9:21 PM 42.8 °F - 39.2 °F 87% 30.21 in 0.2 mi Calm Calm - N/A Fog Fog
9:28 PM 41.0 °F - 37.4 °F 87% 30.22 in 0.5 mi Calm Calm - N/A Fog Fog
9:44 PM 41.0 °F - 37.4 °F 87% 30.22 in 0.2 mi Calm Calm - N/A Fog Fog
9:53 PM 42.1 °F - 39.0 °F 89% 30.23 in 0.5 mi Calm Calm - N/A Fog Fog
9:59 PM 41.0 °F - 37.4 °F 87% 30.23 in 0.2 mi Calm Calm - N/A Fog Fog
10:05 PM 42.8 °F - 37.4 °F 81% 30.23 in 0.5 mi Calm Calm - N/A Fog Fog
10:53 PM 41.0 °F - 37.9 °F 89% 30.25 in 0.5 mi Calm Calm - N/A Fog Fog
11:02 PM 41.0 °F 39.0 °F 37.4 °F 87% 30.24 in 1.2 mi ENE 3.5 mph - N/A   Scattered Clouds
11:06 PM 41.0 °F - 37.4 °F 87% 30.24 in 0.8 mi Calm Calm - N/A   Mist
11:20 PM 42.8 °F - 39.2 °F 87% 30.24 in 1.5 mi Calm Calm - N/A   Mostly Cloudy
11:23 PM 42.8 °F 41.1 °F 39.2 °F 87% 30.25 in 3.0 mi East 3.5 mph - N/A   Mostly Cloudy
11:53 PM 43.0 °F 40.3 °F 39.9 °F 89% 30.26 in 7.0 mi East 4.6 mph - N/A   Scattered Clouds